Flag for Cuba Weather past 2 weeks in Camagüey, Cuba

Now
73 °F

Passing clouds.


Feels Like: 70 °F
Forecast: 74 / 90 °F
Wind: 1 mph from North

Location: Camaguey Aeropuerto

Current Time: Aug 27, 2014 at 11:46:04 PM

Latest Report: Aug 27, 2014 at 10:50 PM


Visibility: 5 mi

Pressure: 30.04 "Hg

Humidity: 94%

Dew point: 72 °F

Location of CamagüeyLocation

Historic Weather in Camagüey — Graph

°F

Camagüey temperature yesterday

Maximum temperature yesterday: 93 °F (at 1:50 PM)
Minimum temperature yesterday: 75 °F (at 2:50 AM)
Average temperature yesterday: 83 °F

Past Weeks' High & Low Weather Summary

 TemperatureHumidityPressure
High95 °F (Aug 18, 3:50 PM)94% (Aug 13, 6:52 AM)30.09 "Hg (Aug 13, 6:52 AM)
Low70 °F (Aug 18, 8:50 PM)30% (Aug 25, 1:52 PM)29.74 "Hg (Aug 24, 3:50 PM)
Average82 °F73%29.98 "Hg
* Reported Aug 12 9:50 PM — Aug 27 9:51 PM, Camagüey, Weather by CustomWeather, © 2014

Note: Actual official high and low records may vary slightly from our data, if they occured in-between our weather recording intervals... More about our weather records

Advertising

Camagüey weather history for previous 24 hours

 ConditionsComfort  
Time TempWeatherWind HumidityBarometerVisibility
9:51 PM
Aug 27
73 °FLight rain. Passing clouds.2 mph94%30.04 "Hg4 mi
8:50 PM75 °FThunderstorms. Passing clouds.5 mph89%30.07 "Hg4 mi
7:50 PM75 °FThunderstorms. Partly sunny.14 mph89%30.04 "Hg3 mi
6:50 PM82 °FThunderstorms. Scattered clouds.7 mph70%29.98 "Hg6 mi
5:53 PM86 °FScattered clouds.6 mph62%29.95 "Hg6 mi
4:52 PM90 °FScattered clouds.9 mph49%29.95 "Hg6 mi
3:51 PM91 °FScattered clouds.13 mph44%29.95 "Hg6 mi
2:50 PM91 °FPartly sunny.12 mph49%29.95 "Hg6 mi
1:50 PM91 °FPartly sunny.10 mph49%29.98 "Hg6 mi
12:52 PM91 °FPartly sunny.9 mph52%30.01 "Hg6 mi
11:50 AM86 °FPassing clouds.6 mph66%30.01 "Hg6 mi
10:52 AM84 °FPartly sunny.8 mph70%29.98 "Hg6 mi
9:50 AM81 °FPartly sunny.5 mph84%29.98 "Hg6 mi
8:52 AM79 °FPartly sunny.2 mph84%29.98 "Hg6 mi
7:53 AM75 °FPartly sunny.3 mph89%29.95 "Hg6 mi
6:52 AM73 °FPassing clouds.3 mph89%29.95 "Hg6 mi
5:50 AM73 °FPassing clouds.3 mph89%29.92 "Hg6 mi
4:50 AM73 °FClear.6 mph89%29.89 "Hg6 mi
3:50 AM73 °FPassing clouds.7 mph89%29.89 "Hg6 mi
2:50 AM75 °FPartly cloudy.10 mph89%29.92 "Hg6 mi
1:52 AM75 °FPassing clouds.9 mph89%29.95 "Hg6 mi
12:51 AM75 °FPassing clouds.13 mph94%29.95 "Hg6 mi
11:50 PM
Aug 26
75 °FLight rain. Passing clouds.15 mph89%29.98 "Hg4 mi
Weather by CustomWeather, © 2014

See weather overviewHow to use our weather pages